Probability
1 1 0 0 0 0 0 0 0 0 0 0 0 0 0 0 0 0 0 0 0 0 0 0 1 2 1 0 0 0 1 1 1 1 1 1 1 0 0 0 0 0 1 2 3 3 3 3 3
1 0 0 0 0 0 0 0 0 0 0 0 0 0 0 0 0 0 0 0 0 0 0 1 2 4 2 1 0 1 2 2 2 1 1 1 0 0 0 0 0 0 0 1 3 3 3 3 3
0 1 1 1 0 0 0 0 0 0 0 0 0 0 0 0 0 0 0 0 0 0 0 1 3 4 3 2 2 3 4 3 3 2 1 1 1 1 0 0 0 0 0 1 3 3 3 3 3
1 1 2 1 0 0 0 0 0 0 0 0 0 0 0 0 0 0 0 0 0 0 0 1 3 4 4 4 5 5 5 4 4 4 4 3 2 1 1 1 0 1 1 2 3 3 3 3 3
0 1 1 0 0 0 0 0 0 0 0 0 0 0 0 0 0 0 0 0 0 0 0 2 5 6 6 6 7 6 6 5 4 5 5 4 3 1 1 2 2 2 3 3 3 3 3 3 3
0 0 0 0 0 0 0 0 0 0 0 0 0 0 1 1 1 0 0 0 0 0 0 2 5 7 7 8 7 5 4 4 4 5 5 4 3 2 2 2 3 3 3 3 3 3 3 2 1
0 0 0 0 0 0 0 0 0 0 0 0 0 1 2 2 2 1 0 0 0 0 0 1 2 4 6 7 6 4 3 3 4 5 5 5 4 3 2 1 2 2 2 2 2 2 2 1 0
0 0 0 0 0 0 0 0 0 0 0 0 0 1 2 2 3 2 1 0 0 0 0 0 0 1 2 4 4 4 2 1 2 3 4 5 4 2 1 0 1 1 1 1 1 1 1 0 0
0 0 0 0 0 0 0 0 0 0 1 1 0 0 1 2 3 3 2 1 1 0 0 0 0 0 0 1 1 1 1 0 0 1 2 3 2 1 0 0 0 0 0 1 1 0 1 1 0
0 0 0 0 0 0 0 0 1 1 1 1 0 0 1 2 3 3 3 3 2 1 0 0 0 0 0 0 0 0 0 0 0 0 1 1 0 0 0 0 0 0 0 1 1 1 1 1 1
0 0 0 0 0 0 0 0 0 0 0 0 0 0 2 3 3 3 3 3 2 1 0 0 0 0 0 0 0 0 0 0 0 0 0 0 0 0 0 0 0 0 0 1 1 0 1 1 0
0 0 0 0 0 0 0 0 0 0 0 0 0 1 3 3 3 3 3 3 3 1 0 0 0 0 0 0 0 0 0 0 0 0 0 0 0 0 0 0 0 0 0 0 0 0 0 0 0
0 0 0 0 0 0 0 0 0 0 0 1 2 3 3 3 3 3 3 2 2 2 1 1 1 0 0 0 0 0 0 0 0 0 0 0 0 0 0 0 0 0 0 0 0 0 0 0 0
0 0 0 0 0 1 1 1 0 0 1 4 5 5 4 3 3 3 2 2 2 2 2 2 2 2 1 0 0 0 0 0 0 0 0 0 0 0 0 0 0 0 0 0 0 0 0 0 0
0 0 0 0 1 1 2 1 1 1 2 6 8 7 6 4 3 3 3 2 3 3 3 3 4 4 3 1 1 0 0 0 0 0 0 1 1 0 0 0 0 0 0 0 0 0 0 0 0
0 0 0 0 1 2 2 1 0 1 3 6 8 7 6 4 2 2 3 3 3 2 3 5 6 5 4 3 2 1 1 1 1 0 2 3 2 1 0 0 0 0 0 0 0 0 0 0 0
0 0 0 0 1 2 2 1 1 1 2 5 5 5 4 2 1 1 2 3 3 2 3 6 7 6 4 3 3 3 3 3 3 2 3 4 3 2 1 1 0 0 0 0 0 1 1 1 1
0 0 0 0 0 1 2 2 2 2 3 4 3 2 2 2 1 1 3 5 5 3 4 6 7 7 6 5 4 4 4 5 5 5 4 4 3 2 2 2 1 0 0 0 0 1 2 2 2
0 0 0 0 1 2 3 3 3 3 3 3 1 0 1 3 3 3 5 8 7 6 6 7 8 8 7 6 6 6 6 6 6 5 4 3 3 2 2 2 1 0 1 1 1 2 3 3 3
0 0 0 0 1 2 3 4 4 4 4 2 1 1 1 3 5 6 7 9 10 9 8 9 10 9 7 7 8 7 6 6 6 4 3 3 3 3 3 2 1 1 1 2 2 2 3 3 3
0 0 0 0 1 1 2 3 4 5 5 3 3 3 4 6 8 9 10 11 11 10 9 10 10 8 7 7 8 7 6 6 5 3 2 2 3 3 3 3 2 1 1 1 1 2 3 3 3
0 0 0 0 0 0 1 1 2 5 6 5 4 6 7 8 8 9 10 10 10 9 9 9 7 6 6 6 7 7 6 6 5 2 1 1 1 2 3 3 3 2 1 0 0 1 1 2 2
0 0 0 0 0 0 0 0 1 3 5 5 6 7 7 8 8 8 9 9 9 10 10 8 6 5 6 7 7 7 7 6 4 2 1 1 1 2 3 3 3 3 2 1 0 0 0 1 1
0 0 0 0 0 0 0 0 1 2 3 4 5 6 7 7 7 8 7 8 9 11 12 11 8 7 7 8 8 8 7 7 5 3 2 2 2 3 3 3 3 3 4 3 2 2 1 0 0
0 0 0 0 0 0 0 0 1 3 3 3 4 5 5 6 6 7 6 6 8 10 12 11 10 9 9 10 9 8 7 7 6 5 5 4 4 4 4 4 4 5 6 6 5 5 3 1 0
0 0 0 0 0 0 0 1 3 5 4 4 4 5 4 4 6 6 5 4 6 8 9 9 8 9 10 10 9 8 7 7 7 7 7 6 6 6 6 6 6 7 8 8 7 6 5 3 2
0 0 0 0 0 0 0 1 3 6 5 4 5 5 4 4 5 5 4 3 5 6 6 5 5 7 8 7 6 5 5 6 6 7 7 7 7 7 8 9 9 9 9 9 7 6 6 6 5
0 0 0 0 0 0 0 1 2 4 5 4 4 4 3 2 3 3 3 3 4 5 4 4 4 5 5 4 3 2 2 3 4 5 6 7 7 7 8 9 9 9 9 9 7 6 6 6 6
0 0 0 0 0 0 0 0 1 3 4 4 4 3 1 1 1 1 3 3 4 4 3 3 4 5 4 3 2 0 0 1 1 2 4 5 6 6 6 7 8 9 9 8 8 6 5 4 5
0 0 0 0 0 0 0 0 0 2 4 5 5 3 1 0 0 1 2 4 4 4 3 3 4 5 5 4 2 0 0 0 0 1 2 4 4 4 5 6 7 8 8 8 8 6 4 4 5
Wind_Speed
6 5 2 0 3 4 2 3 1 2 3 3 4 5 5 3 2 1 1 3 3 2 1 2 3 5 6 6 7 7 7 8 8 8 8 8 7 7 7 7 6 7 8 9 9 9 9 8 9
5 4 1 1 4 2 2 2 1 1 3 3 4 4 5 3 2 3 1 2 4 3 1 1 4 5 6 7 6 6 6 7 8 8 8 8 7 6 6 5 5 6 7 8 8 8 8 8 8
5 3 1 3 2 2 1 1 2 3 3 2 3 4 4 2 2 2 2 4 4 2 1 1 5 6 6 6 6 5 4 8 8 8 7 7 6 6 5 5 4 5 6 7 7 7 7 7 7
2 1 2 3 2 1 2 2 2 3 3 4 4 4 3 2 2 3 5 5 4 2 1 1 4 5 6 6 5 5 7 8 8 7 7 7 6 5 4 4 3 4 5 6 6 6 5 5 6
1 2 4 3 2 2 0 1 1 2 2 3 4 4 2 3 4 7 6 5 4 2 1 1 3 4 5 5 5 5 6 7 7 7 7 6 5 5 4 4 3 3 4 4 4 4 4 4 5
2 3 4 2 3 2 1 0 2 3 3 3 3 3 1 2 4 5 5 4 3 3 1 1 3 3 3 4 4 5 5 6 6 6 6 5 4 4 3 2 2 2 3 3 3 3 3 3 3
3 3 2 0 1 1 0 1 2 3 3 2 3 4 1 1 2 4 4 3 3 2 2 1 1 1 2 3 3 4 4 4 5 5 5 4 3 3 2 2 2 2 2 3 3 3 3 3 3
2 3 2 1 1 1 1 2 1 3 2 3 3 4 2 2 3 5 4 4 3 2 1 1 1 1 1 1 2 3 3 3 3 3 3 3 2 1 1 1 1 1 1 2 2 2 2 2 2
2 4 0 2 2 2 1 2 1 2 4 3 2 3 3 7 7 6 4 3 2 1 1 1 1 1 1 1 1 2 2 2 2 2 2 1 2 2 1 1 1 0 1 1 1 2 2 1 1
3 2 3 3 3 2 2 2 2 3 3 2 3 4 7 8 7 6 4 3 2 1 0 0 0 1 1 1 2 2 2 2 2 1 2 2 2 2 2 2 2 1 1 1 1 1 1 1 1
2 3 3 1 2 3 2 1 1 5 2 4 6 7 8 8 6 5 4 3 3 2 1 0 1 1 1 1 1 1 1 1 1 2 2 1 2 2 2 2 2 3 2 2 3 3 2 1 1
1 3 2 1 2 2 2 2 2 2 3 4 7 9 8 8 7 6 5 3 2 1 1 0 1 1 1 1 1 1 1 1 1 1 2 1 1 1 2 1 2 2 2 2 2 1 1 1 1
0 2 1 1 3 2 2 1 2 0 2 7 8 7 7 6 5 4 3 3 2 2 1 1 2 2 1 1 1 1 1 1 1 1 1 1 1 1 1 1 1 2 1 1 1 1 1 1 0
1 1 2 1 1 1 3 1 2 1 5 7 7 5 5 5 5 3 3 3 3 3 2 1 2 2 2 1 1 1 1 1 1 1 1 1 1 1 1 1 1 1 1 1 1 0 1 0 0
1 2 4 2 1 1 4 3 0 2 6 6 5 4 4 3 4 4 4 4 4 3 2 2 2 2 2 1 0 0 1 1 1 1 1 1 1 1 1 1 1 1 1 1 1 1 1 0 0
2 3 2 3 1 2 4 2 2 4 7 5 4 4 3 3 3 3 3 3 3 3 3 2 3 3 2 1 0 1 1 1 0 1 1 1 1 1 1 1 1 1 1 1 1 1 1 1 1
3 1 2 3 0 2 3 3 2 4 6 5 4 4 3 3 3 3 3 4 3 3 3 3 2 3 2 2 1 1 1 1 1 1 1 1 1 1 1 1 1 1 1 1 1 1 0 0 1
2 2 2 3 1 3 2 2 1 4 5 4 3 3 3 4 5 3 3 3 3 3 3 3 3 2 2 2 1 1 2 1 1 1 1 1 1 1 1 0 1 1 1 1 1 1 1 0 0
2 2 3 3 1 2 1 2 1 3 4 3 3 3 4 4 3 2 3 3 3 3 3 3 3 2 2 1 1 1 1 1 1 1 2 2 1 1 1 1 1 1 1 1 1 1 1 1 1
2 1 2 2 2 3 1 2 1 3 4 5 5 4 4 2 1 2 2 2 3 3 3 2 2 2 2 1 1 1 1 0 0 1 2 2 2 1 1 1 1 1 1 1 1 1 1 1 1
3 4 4 2 2 4 3 4 3 1 1 2 2 2 3 4 4 3 3 3 3 2 3 2 2 2 1 1 2 2 2 2 2 2 2 2 2 1 1 1 1 1 1 1 1 1 1 0 1
4 4 4 3 3 1 1 2 5 2 1 2 3 3 3 3 3 3 3 3 3 3 2 2 2 2 1 2 2 2 2 1 1 1 1 2 2 2 2 1 2 2 1 1 1 1 1 1 1
3 1 3 2 3 2 2 1 7 1 3 4 4 3 3 3 3 4 4 3 3 2 2 2 2 1 1 2 2 2 1 1 0 1 1 2 2 2 1 1 1 1 1 1 1 1 2 1 1
4 5 5 5 5 2 2 2 6 3 5 3 4 3 3 3 3 3 3 2 2 2 2 2 2 1 1 2 2 2 2 1 0 1 1 1 1 1 1 1 1 1 1 1 0 1 1 1 1
5 6 4 5 4 4 2 2 7 5 4 4 5 4 4 4 4 4 4 3 3 3 2 2 2 1 1 2 2 2 2 1 1 1 1 0 1 1 1 0 0 0 0 0 1 1 1 1 1
3 7 7 4 4 4 2 3 6 3 2 1 3 3 3 3 4 4 5 4 4 3 3 3 3 2 1 1 1 1 1 1 1 1 1 1 1 1 1 0 0 0 0 1 1 1 1 1 1
5 3 5 7 2 1 4 5 5 1 3 2 3 3 3 3 4 4 3 3 3 3 3 3 3 2 1 2 1 0 1 1 1 1 0 0 1 1 0 0 0 0 0 0 1 1 1 1 1
4 7 5 5 4 2 4 4 4 3 2 1 1 2 2 3 3 3 3 3 3 3 2 2 2 2 2 2 1 1 0 1 1 0 0 0 1 1 1 1 1 1 0 0 1 0 0 1 0
3 4 5 4 4 5 3 7 5 6 5 4 3 3 3 4 3 3 3 2 2 2 2 2 2 2 1 1 1 1 1 0 0 0 1 1 0 0 0 0 0 0 1 0 0 1 0 0 1
3 5 7 5 3 4 3 8 3 4 4 4 3 2 3 3 2 2 2 2 2 2 2 2 2 2 2 2 2 2 1 1 1 1 1 0 0 1 1 1 0 1 1 0 1 1 1 1 1
Wind_Direction
157 143 151 164 48 45 4 329 357 30 44 36 64 77 93 81 105 150 295 120 116 120 144 167 136 122 120 115 116 122 130 134 136 137 138 136 139 142 145 148 156 166 170 171 167 166 165 167 169
150 157 174 57 70 53 339 324 41 63 138 135 76 68 71 64 75 108 114 131 126 130 124 157 135 123 119 116 117 119 131 137 137 137 137 136 136 135 139 141 148 157 162 166 168 167 169 171 173
166 187 78 61 77 151 217 320 106 82 81 72 71 59 73 80 111 147 165 135 118 122 118 160 139 131 127 124 120 115 129 144 139 140 139 138 134 128 128 130 136 146 154 159 159 162 166 169 175
169 100 52 58 23 272 200 194 142 108 56 51 85 67 55 47 134 137 126 130 126 122 118 157 144 134 126 123 119 113 102 124 132 135 138 140 135 129 126 126 119 133 145 150 155 159 164 172 178
95 73 49 30 343 325 240 200 144 98 69 62 88 90 41 13 83 109 121 128 133 119 112 137 138 129 125 125 125 118 112 116 120 126 133 137 134 130 127 124 118 122 133 138 145 152 164 181 188
59 60 62 13 337 341 1 123 110 91 90 86 92 95 48 31 93 116 119 121 132 135 127 108 149 134 121 114 113 117 119 120 123 126 129 136 139 141 141 138 139 138 141 139 146 154 162 172 177
95 83 81 339 323 341 129 106 109 106 90 103 114 97 53 32 104 114 106 105 102 107 110 82 53 92 114 109 112 118 123 129 132 135 135 138 144 154 152 148 172 167 156 153 159 164 167 168 166
126 94 51 339 212 263 119 96 94 103 101 111 108 130 181 195 123 101 90 89 87 84 80 56 33 42 37 47 93 113 119 118 121 126 130 135 143 137 125 114 169 176 162 156 164 170 171 182 183
113 73 45 225 200 235 156 107 81 83 102 89 89 134 149 133 119 103 89 78 78 102 72 56 54 47 34 32 58 67 81 85 87 92 100 69 30 20 10 22 0 36 104 111 147 165 156 149 154
100 117 235 221 195 184 183 138 142 101 93 88 81 88 114 126 131 132 134 143 163 189 195 77 104 96 69 67 52 33 34 34 39 43 36 42 38 17 14 359 0 34 58 67 74 83 84 78 71
154 200 246 254 172 152 154 165 124 134 188 196 167 149 136 138 144 150 158 168 187 187 173 148 157 113 102 67 58 44 33 28 30 34 40 41 36 20 15 9 1 9 22 32 36 41 43 60 83
181 262 256 262 130 127 163 151 102 167 218 170 153 148 145 152 162 170 174 183 171 135 147 137 135 109 104 90 57 53 39 26 28 24 39 59 47 25 15 19 11 20 25 39 41 48 47 54 75
202 301 329 98 101 121 105 98 120 325 104 112 120 130 146 157 166 176 177 174 154 151 161 145 116 117 115 98 57 70 53 32 23 31 29 72 74 32 30 39 32 24 28 46 47 57 63 37 344
271 319 354 14 100 102 107 64 66 218 119 115 124 137 155 163 163 159 163 167 166 171 174 149 130 132 115 102 89 40 37 33 41 33 13 58 85 77 64 46 33 18 22 38 81 92 99 42 5
5 16 6 359 104 132 99 21 304 162 123 124 137 148 157 163 159 174 184 181 180 173 157 149 146 113 104 98 101 84 45 45 31 8 30 66 86 101 94 71 29 356 8 28 58 64 74 80 32
42 46 350 301 64 121 119 253 255 151 137 145 156 160 166 186 194 194 184 180 175 160 150 156 146 126 125 125 155 88 72 72 34 28 36 65 74 83 92 77 5 346 21 46 64 57 57 29 30
33 6 282 302 295 122 142 230 245 155 151 166 173 174 179 193 216 210 192 184 177 168 154 148 141 143 146 125 95 74 71 66 52 48 44 28 62 89 109 80 350 4 48 51 54 56 69 28 357
244 256 278 271 258 119 148 243 248 160 162 178 182 182 194 207 221 210 197 187 169 159 151 148 145 132 117 89 62 53 48 41 45 41 29 12 23 53 92 88 17 43 53 40 40 50 42 60 319
195 208 266 269 236 130 179 257 242 159 157 177 193 196 212 225 228 194 184 166 145 148 151 155 144 130 113 104 107 84 18 16 25 28 27 21 23 29 72 46 44 58 76 37 50 72 48 30 28
198 237 272 321 23 134 92 326 331 148 183 190 193 204 217 216 218 201 183 161 164 165 163 153 154 150 146 155 157 138 110 51 40 6 20 32 41 34 58 61 58 60 72 46 38 64 64 33 51
231 207 218 198 38 50 61 344 322 255 161 154 184 202 205 200 202 198 180 180 164 165 173 174 170 153 143 132 103 81 57 31 18 11 8 9 29 48 45 59 81 79 93 75 32 53 89 74 26
259 233 188 158 107 341 91 284 293 270 248 214 221 209 209 201 188 182 172 169 173 180 165 162 160 147 135 130 127 126 130 168 268 294 334 359 17 33 46 57 67 70 79 80 48 66 67 95 49
217 94 100 102 118 60 18 150 287 315 260 245 232 217 206 190 184 180 180 182 177 167 160 169 150 144 146 147 156 150 155 194 316 10 13 2 8 31 54 75 77 75 74 66 55 65 73 90 109
137 71 57 51 67 22 268 179 278 249 233 243 224 213 194 176 179 178 168 155 155 145 145 149 148 170 172 166 165 168 178 176 85 351 341 345 348 358 12 86 82 85 90 77 55 78 88 86 90
84 84 34 6 14 265 267 195 253 261 246 222 207 204 185 168 172 175 171 171 177 175 167 155 156 194 195 178 186 192 196 195 212 237 235 265 315 315 316 359 63 285 194 111 89 89 76 82 96
157 137 154 193 222 276 320 243 261 290 318 135 154 160 153 155 168 178 183 180 182 186 181 175 182 204 200 191 209 208 198 202 230 241 227 219 238 261 275 219 220 246 142 106 102 95 103 82 83
130 138 153 129 131 306 291 292 305 28 34 60 101 119 144 163 169 173 174 172 171 175 182 184 185 194 197 194 188 200 229 216 223 241 218 242 258 256 327 165 149 327 64 111 125 118 150 127 130
119 139 99 109 137 255 293 276 256 265 248 225 143 152 164 160 162 171 178 180 183 176 167 154 165 183 182 169 180 174 201 218 211 157 208 254 294 338 13 22 29 13 11 159 144 157 250 128 219
98 89 101 108 145 155 242 268 230 211 205 197 205 188 168 164 171 177 182 179 169 149 150 147 142 134 127 139 134 97 69 88 97 162 254 266 303 315 320 316 10 345 324 313 166 226 198 171 308
152 157 145 148 201 169 183 262 281 188 185 177 194 183 158 157 166 161 158 150 143 146 145 145 152 147 142 124 110 103 81 64 59 19 310 275 269 289 276 271 248 251 272 269 242 252 248 217 257